This is the latest recevied weather packets stored in our database for station/object SV9TNF-1. If no packets are shown the sender has not sent any weather packets the latest 1 day(s).
| Time | Temp. | Humidity | Pressure | Rain* | Wind** | Luminosity | Snow |
|---|---|---|---|---|---|---|---|
| 1777975381 | 24.44° C | 26% | 1006.1 hPa | 0 mm | 3.13 m/s, 347° | - | - |
| 1777975081 | 23.89° C | 27% | 1006.1 hPa | 0 mm | 8.49 m/s, 21° | - | - |
| 1777974781 | 24.44° C | 25% | 1006.1 hPa | 0 mm | 1.79 m/s, 114° | - | - |
| 1777974481 | 24.44° C | 25% | 1006.1 hPa | 0 mm | 4.47 m/s, 103° | - | - |
| 1777974181 | 24.44° C | 25% | 1006.1 hPa | 0 mm | 4.02 m/s, 337° | - | - |
| 1777973881 | 23.33° C | 27% | 1006.1 hPa | 0 mm | 6.26 m/s, 315° | - | - |
| 1777973581 | 23.89° C | 24% | 1006.1 hPa | 0 mm | 4.92 m/s, 326° | - | - |
| 1777973281 | 24.44° C | 24% | 1006.1 hPa | 0 mm | 4.92 m/s, 356° | - | - |
| 1777972981 | 23.89° C | 26% | 1006.1 hPa | 0 mm | 2.24 m/s, 287° | - | - |
| 1777972681 | 23.33° C | 27% | 1006.1 hPa | 0 mm | 2.68 m/s, 125° | - | - |
| 1777972381 | 23.89° C | 25% | 1006.1 hPa | 0 mm | 4.02 m/s, 102° | - | - |
| 1777972080 | 23.33° C | 23% | 1006.1 hPa | 0 mm | 5.36 m/s, 34° | - | - |
| 1777971781 | 23.33° C | 27% | 1006.1 hPa | 0 mm | 4.92 m/s, 317° | - | - |
| 1777971480 | 22.22° C | 26% | 1006.4 hPa | 0 mm | 8.05 m/s, 319° | - | - |
| 1777971180 | 22.78° C | 26% | 1006.4 hPa | 0 mm | 5.81 m/s, 344° | - | - |
| 1777970880 | 22.78° C | 26% | 1006.4 hPa | 0 mm | 8.05 m/s, 332° | - | - |
| 1777970580 | 22.78° C | 25% | 1006.4 hPa | 0 mm | 3.13 m/s, 306° | - | - |
| 1777970280 | 22.22° C | 27% | 1006.4 hPa | 0 mm | 8.05 m/s, 352° | - | - |
| 1777969980 | 22.78° C | 29% | 1006.4 hPa | 0 mm | 8.94 m/s, 346° | - | - |
| 1777969679 | 22.22° C | 31% | 1006.4 hPa | 0 mm | 6.71 m/s, 18° | - | - |
| 1777969379 | 22.22° C | 26% | 1006.4 hPa | 0 mm | 7.15 m/s, 357° | - | - |
| 1777969080 | 22.22° C | 24% | 1006.4 hPa | 0 mm | 6.71 m/s, 42° | - | - |
| 1777968779 | 22.22° C | 26% | 1006.4 hPa | 0 mm | 9.39 m/s, 307° | - | - |
| 1777968479 | 21.67° C | 25% | 1006.4 hPa | 0 mm | 4.02 m/s, 332° | - | - |
| 1777968179 | 21.67° C | 25% | 1006.4 hPa | 0 mm | 5.36 m/s, 344° | - | - |
* Rain latest hour (hover to see other rain measurements)
** Current wind speed in m/s (hover to see current wind gust speed)